Location: Apeadero de Los Molinos-Guadarrama
(40.7091°N, 4.0689°W)
Time: 10:18:19
(UTC+00:00)

RESURS DK-1 - Pass Details

Date: 14 May 2021
Orbit: 553 x 564 km, 69.9° (Epoch: 20 June)

Event Time Altitude Azimuth Distance (km) Brightness Sun altitude
Rises 22:52:14 0° 345° (NNW) 2,764 7.2 -27.6°
Reaches altitude 10° 22:54:43 10° 358° (N) 1,864 5.9 -27.7°
Enters shadow 22:57:29 25° 36° (NE) 1,146 4.2 -27.9°
